sat.trackr.live / text

‹ back to catalog

LASARSAT

NORAD 62391 · 2024-247Q

PAYLOAD ACTIVE UNKNOWN

§ Identity

Operator
Country
CZCH
Launch date
2024-12-21
Launch site
AFWTR
Launch vehicle
Mass (kg)
RCS (m²)

Purposes: comms, tech_demo

External: N2YO · Heavens-Above · Gunter

§ Orbital elements

Epoch: 2026-09-19T19:43:42.243744Z

Period
92.76 min
Inclination
44.9718°
Eccentricity
0.0009767
Mean motion
15.52377278 rev/d
Perigee alt
403.2 km
Apogee alt
416.4 km
Semi-major
6,787.9 km
B*
5.3930e-4
RAAN
88.0673°
Arg perigee
232.1281°
Mean anomaly
127.8728°
Rev number
9,799

§ Raw data

LASARSAT1 62391U 24247Q   26262.82201671  .00033498  00000+0  53930-3 0  99942 62391  44.9718  88.0673 0009767 232.1281 127.8728 15.52377278 97992

JSON: /api/v1/satellites/62391 · /tle

For live sub-satellite position, see the globe view (requires WebGL).

§ Visibility from observer

Set your observer location to see the next 7 days of passes ≥ 10°. The values pass through the URL so the page stays shareable.

No JS? Fill the form by hand. The geolocation button needs JavaScript.

§ Radio — SatNOGS DB

ModeDescriptionDownlinkUplink
CW Mode U - CW - Beacon 436.925 MHz
GFSK Mode U - GFSK9k6 - AX.25 G3RUH 436.925 MHz
GFSK Mode U/U - GFSK9k6 - Digipeater - AX.25 436.925 MHz 436.925 MHz

3 transmitters · refreshed weekly from db.satnogs.org